Home > Weather > Tokyo > Past weeks

Flag for Japan Weather for the Past 2 Weeks in Tokyo, Japan

Now
53 °F

Cool.


Feels Like: 50 °F
Forecast: 49 / 66 °F
Wind: 9 mph from North

Location: Tokyo

Current Time: Apr 30, 2016 at 4:45:38 AM

Latest Report: Apr 30, 2016 at 4:00 AM


Visibility: N/A

Pressure: 29.83 "Hg

Humidity: 41%

Dew Point: 30 °F

Location of TokyoLocation

Historic Weather in Tokyo — Graph

°F

Tokyo Temperature Yesterday

Maximum temperature yesterday: 68 °F (at 2:00 PM)
Minimum temperature yesterday: 54 °F (at 11:00 PM)
Average temperature yesterday: 60 °F

High & Low Weather Summary for the Past Weeks

 TemperatureHumidityPressure
High74 °F (Apr 26, 12:00 PM)100% (Apr 21, 11:00 PM)30.33 "Hg (Apr 21, 11:00 PM)
Low51 °F (Apr 20, 5:00 AM)19% (Apr 15, 1:00 PM)29.32 "Hg (Apr 28, 6:00 PM)
Average61 °F65%29.89 "Hg
* Reported Apr 15 3:00 AM — Apr 30 3:00 AM, Tokyo, Weather by CustomWeather, © 2016

Note: Actual official high and low records may vary slightly from our data, if they occured in-between our weather recording intervals... More about our weather records

Advertising

Tokyo Weather History for the Previous 24 Hours

Scroll right to see more
 ConditionsComfort  
Time TempWeatherWind HumidityBarometerVisibility
3:00 AM
Sat, Apr 30
54 °FPassing clouds.8 mph35%29.83 "Hg12 mi
2:00 AM56 °FRefreshingly cool.15 mph32%29.82 "HgN/A
1:00 AM55 °FCool.10 mph34%29.80 "HgN/A
12:00 AM53 °FCool.9 mph40%29.81 "HgN/A
11:00 PM
Fri, Apr 29
54 °FCool.8 mph38%29.81 "HgN/A
10:00 PM56 °FRefreshingly cool.12 mph34%29.78 "HgN/A
9:00 PM55 °FPassing clouds.9 mph38%29.78 "Hg12 mi
8:00 PM57 °FRefreshingly cool.13 mph32%29.75 "HgN/A
7:00 PM57 °FRefreshingly cool.16 mph33%29.71 "HgN/A
6:00 PM58 °FPassing clouds.15 mph31%29.66 "Hg16 mi
5:00 PM61 °FRefreshingly cool.16 mph32%29.62 "HgN/A
4:00 PM64 °FMild.15 mph28%29.57 "HgN/A
3:00 PM67 °FPassing clouds.14 mph27%29.50 "Hg19 mi
2:00 PM68 °FMild.17 mph29%29.50 "HgN/A
12:00 PM65 °FPassing clouds.17 mph30%29.50 "Hg19 mi
10:00 AM65 °FMild.13 mph33%29.47 "HgN/A
9:00 AM62 °FPartly sunny.13 mph44%29.44 "Hg16 mi
8:00 AM62 °FRefreshingly cool.13 mph46%29.44 "HgN/A
6:00 AM59 °FPartly sunny.13 mph53%29.38 "Hg12 mi
5:00 AM59 °FRefreshingly cool.13 mph58%29.35 "HgN/A
4:00 AM60 °FCool.12 mph63%29.35 "HgN/A
Weather by CustomWeather, © 2016

See weather overviewHow to use our weather pages